Location: Altoona
(40.5167°N, 78.4000°W)
Time: 23:58:32
(UTC-04:00)

Daily predictions for brighter satellites

Satellite Brightness Start Highest point End
(mag) Time Altitude Azimuth Time Altitude Azimuth Time Altitude Azimuth
Meteor 2-14 Rocket 4.5 18:47:21 10° S 18:53:22 65° E 18:59:23 10° NNE
SPOT 3 Rocket 4.0 18:50:47 10° SE 18:55:37 41° ENE 19:00:29 10° N
CZ-4C R/B 3.9 18:57:25 10° ESE 18:58:24 10° ESE 18:59:26 10° E
GP-B 3.4 18:54:26 10° NNE 18:58:42 45° E 19:02:57 10° SSE
Cosmos 2056 Rocket 3.5 18:55:06 10° NNW 19:00:25 69° ENE 19:05:38 10° SSE
Cosmos-2242 3.1 18:57:10 10° S 19:01:25 80° W 19:05:42 10° N
SL-14 R/B 3.5 18:57:38 10° NNW 19:01:29 74° W 19:05:19 10° S
METEOR-M 4.2 18:57:48 10° SSE 19:03:01 55° ENE 19:08:14 10° N
Tiangong 1 2.6 19:03:32 10° W 19:05:56 28° SSW 19:08:18 10° SE
ALOS 2.8 19:05:25 10° SE 19:09:39 36° ENE 19:13:54 10° N
USA 267 4.3 19:06:33 10° ENE 19:11:49 26° SE 19:17:04 10° S
MONITOR-E 4.2 19:09:24 10° SSE 19:12:25 56° ENE 19:15:27 10° N
SKYMED 2 3.5 19:08:59 10° NNE 19:13:18 65° E 19:17:36 10° S
Cosmos 2151 3.3 19:09:54 10° N 19:14:02 45° ENE 19:18:06 10° SSE
NOAA 12 4.3 19:10:57 10° SE 19:16:00 48° ENE 19:21:07 10° N
Cosmos 1452 Rocket 4.0 19:13:15 10° N 19:18:12 40° ENE 19:23:06 10° SE
SL-24 R/B - RUBIN 2 4.3 19:14:14 10° NNW 19:18:49 37° NE 19:22:54 11° ESE
Cosmos 1743 Rocket 3.5 19:14:33 10° N 19:18:56 68° E 19:23:18 10° SSE
GRACE-1 4.4 19:16:46 10° SSE 19:19:07 31° E 19:21:28 10° NNE
COSMOS 2428 3.8 19:14:54 10° N 19:19:26 24° NE 19:23:12 13° ESE
BREEZE-M DEB (TANK) 2.0 19:20:00 10° WSW 19:22:26 53° NNW 19:23:53 16° NE
Cosmos 2333 Rocket 3.9 19:19:24 10° NNE 19:22:32 15° NE 19:24:25 13° ENE
Cosmos 2360 Rocket 2.3 19:17:53 10° NNW 19:23:26 53° ENE 19:28:57 10° SE
Delta 2 Rocket 4.2 19:20:21 10° SW 19:23:37 29° S 19:25:53 15° ESE
Abrixas rocket 3.7 19:20:58 10° W 19:23:56 30° NNW 19:26:39 12° NE
Cosmos 1833 4.2 19:19:52 10° S 19:25:30 66° ESE 19:31:07 10° NNE
Cosmos 1315 Rocket 3.4 19:22:10 10° N 19:25:57 36° ENE 19:29:45 10° SE
Cosmos 1842 Rocket 3.5 19:21:33 10° S 19:26:01 75° E 19:30:28 10° N
Cosmos 1626 2.0 19:22:19 10° N 19:26:03 84° E 19:29:47 10° S
Cosmos 2219 4.2 19:25:33 10° SSE 19:30:01 24° E 19:34:30 10° NE
Cosmos 2322 Rocket 3.0 19:24:41 10° NNW 19:30:10 55° WSW 19:35:38 10° S
DELTA 2 R/B (1) 3.6 19:26:57 10° W 19:32:32 81° S 19:36:42 19° E
Cosmos 2221 3.0 19:29:18 10° SSE 19:33:15 37° E 19:37:16 10° NNE
Meteor 2-1 Rocket 4.2 19:29:02 10° S 19:34:45 72° E 19:40:37 10° NNE
Resurs 01 Rocket 3.6 19:36:11 12° NE 19:36:11 12° NE 19:37:12 10° NE
Cosmos 2366 rocket 4.4 19:32:48 10° SSW 19:39:01 69° W 19:45:12 10° N
Cosmos 1500 Rocket 3.5 19:36:35 10° N 19:40:58 89° WSW 19:45:17 10° S
Cosmos 2058 2.9 19:39:01 10° N 19:43:13 84° W 19:47:22 10° S
RESURS DK-1 2.3 19:39:09 10° NNW 19:43:16 63° ENE 19:47:00 12° SE
Cosmos 921 Rocket 3.1 19:39:14 10° N 19:43:38 55° ENE 19:47:55 10° SSE
Cosmos 44 3.8 19:42:10 10° S 19:46:00 30° ESE 19:46:58 27° E
Lacrosse 5 rocket 4.0 19:47:13 10° NW 19:49:15 13° NNW 19:51:15 10° N
SJ-6B 3.3 19:50:19 33° E 19:50:42 33° ENE 19:54:06 10° N
Cosmos 2322 3.6 19:45:36 10° NNW 19:51:21 72° ENE 19:57:02 10° SSE
FENGYUN 3A 3.7 19:49:46 10° SSE 19:55:10 85° WSW 20:00:37 10° NNW
Iridium 4 Rocket 3.6 19:52:12 10° S 19:57:35 69° E 20:03:21 10° N
Cosmos 1048 Rocket 4.0 19:53:18 10° S 19:58:16 51° ESE 20:03:14 10° NNE
Atlas Centaur 2 3.4 19:54:02 10° WSW 19:58:17 28° S 20:01:18 18° SE
Thor Agena Rocket 3.4 19:55:32 10° NNE 20:00:40 75° ESE 20:05:42 10° S
Cosmos 44 Rocket 3.5 19:56:19 10° S 20:00:45 43° ESE 20:01:58 36° ENE
FREGAT/IRIS 2.4 20:00:46 68° E 20:00:48 69° ENE 20:03:48 10° N
COSMO-SKYMED 1 4.2 19:57:18 10° N 20:01:17 36° WNW 20:05:15 10° SW
Gbstr 26 Del rocket 4.3 19:59:30 10° NW 20:04:18 39° NNE 20:06:21 30° ENE
Cosmos 1420 Rocket 3.9 19:59:22 10° NNW 20:04:43 76° ENE 20:09:34 12° SSE
Envisat 4.1 20:09:18 26° NE 20:09:18 26° NE 20:12:35 10° N
Cosmos 2219 Rocket 2.7 20:08:12 10° N 20:13:24 37° ENE 20:13:48 37° ENE
APEX 3.4 20:10:25 10° SSW 20:12:53 43° S 20:12:53 43° S
ASTRO E2 4.3 20:10:43 10° SW 20:13:49 22° S 20:14:12 22° S
Sich 1 3.8 20:10:25 10° N 20:13:23 34° NE 20:13:23 34° NE
Centaur D AC-28 4.4 20:11:58 10° S 20:14:55 18° SE 20:14:55 18° SE
Cosmos 1821 Rocket 3.8 20:10:10 10° S 20:16:17 78° E 20:22:31 10° N
Cosmos 1000 Rocket 4.4 20:11:43 10° N 20:18:00 88° E 20:24:11 10° S
Cosmos 1805 Rocket 3.4 20:14:51 10° N 20:19:14 76° E 20:20:42 41° SSE
Cosmos 1934 Rocket 3.9 20:17:31 10° S 20:23:48 68° E 20:30:08 10° NNE
Cosmos 2239 Rocket 4.4 20:18:35 10° S 20:24:42 90° SE 20:30:54 10° N
SL-8 R/B 4.1 20:20:13 10° WSW 20:24:59 58° NNW 20:26:18 42° NNE
Cosmos 158 Rocket 4.1 20:20:34 10° SSW 20:25:34 73° WNW 20:30:45 10° NNE
Cosmos 2333 4.1 20:21:11 10° NNW 20:26:55 74° ENE 20:28:44 45° SE
Cosmos 1666 Rocket 4.4 20:23:30 10° N 20:26:17 36° NNE 20:26:17 36° NNE
Cosmos 2237 4.4 20:22:12 10° NNW 20:27:55 71° WSW 20:32:17 17° SSE
Cosmos 1726 3.5 20:27:19 10° SSW 20:29:16 29° SSW 20:29:16 29° SSW
H-2A R/B 3.5 20:31:11 22° SSW 20:33:27 51° W 20:37:16 10° NNW
Cosmos 1633 Rocket 4.4 20:32:42 10° N 20:34:51 27° N 20:34:51 27° N
BREEZE M DEB (TANK) 4.1 20:37:27 10° NW 20:39:03 20° NNW 20:39:03 20° NNW
Cosmos 1269 Rocket 4.1 20:35:42 10° SSW 20:40:57 76° WNW 20:46:03 11° NNE
Cosmos 2237 Rocket 3.3 20:37:49 10° N 20:41:26 30° NNE 20:41:26 30° NNE
In-Cosmos 22 Rocket 4.2 20:38:37 10° N 20:43:57 65° NE 20:43:57 65° NE
Cosmos 2123 Rocket 3.8 20:39:01 10° N 20:45:16 82° E 20:47:28 44° SSE
CZ-4C R/B 2.0 20:40:33 10° SSW 20:45:41 89° ESE 20:46:18 72° NE
Cosmos 1605 Rocket 3.8 20:44:18 10° S 20:50:44 72° ENE 20:56:29 10° N
Cosmos 2098 Rocket 4.3 20:46:46 10° SSW 20:50:46 43° WNW 20:55:51 10° N
SL-16 R/B 4.2 20:47:41 10° N 20:49:03 14° NNE 20:49:03 14° NNE
USA 267 3.2 20:53:05 46° NE 20:55:15 83° NW 21:01:48 10° SW
BREEZE-M DEB (TANK) 3.8 20:56:59 10° WNW 21:03:07 43° NNW 21:03:07 43° NNW
COSMOS 2428 3.3 20:58:30 10° NNW 21:04:00 52° WSW 21:05:17 43° SSW
Cosmos 2360 Rocket 4.5 21:02:51 10° NW 21:06:58 21° W 21:11:05 10° SSW
Cosmos 2333 Rocket 2.6 21:01:53 10° NNW 21:06:27 58° NNW 21:06:27 58° NNW
Resurs 01 Rocket 3.6 21:13:46 23° NNW 21:13:46 23° NNW 21:15:28 10° NNW
Cosmos 2219 4.0 21:08:17 10° SW 21:13:49 48° WNW 21:16:40 27° N
USA 234 3.9 21:31:01 46° N 21:31:01 46° N 21:35:59 10° NW
Atlas Centaur 2 4.5 21:42:31 10° WSW 21:43:57 15° SW 21:43:57 15° SW
Cosmos 2219 Rocket 4.1 21:52:22 10° NW 21:55:32 26° WNW 21:55:32 26° WNW
